Volver al catálogo

ONEWEB-0384

ActivoComunicacionesPO
NORAD 49310·PAYLOAD·🇬🇧 United Kingdom

Lanzado Oct 14, 2021 desde Vostochny Cosmodrome

Loading…

Próximos Pases (próximas 24 horas)

TLE

ActualizadoSource: CelesTrak SupGP

Época: Sep 14, 2026, 14:28 UTC

1 49310C 21090AH  26257.60330273 -.00001193  00000+0 -29344-2 0  2571
2 49310  87.9142 256.6410 0002517  94.9174 281.3026 13.20821196    19

Sigue ONEWEB-0384 en tiempo real con AllMySat

Download on the App Store